Location: Maiden
(35.5760°N, 81.2120°W)
Time: 02:31:28
(UTC-05:00)

Tiangong 1 - Visible Passes

Search period start: 21 February 2018 00:00
Search period end: 03 March 2018 00:00
Orbit: 247 x 269 km, 42.8° (Epoch: 21 February)

Date Brightness Start Highest point End Pass type
(mag) Time Alt. Az. Time Alt. Az. Time Alt. Az.
21 Feb 3.4 05:27:40 12° SE 05:27:40 12° SE 05:27:55 10° SE visible
27 Feb 2.6 19:12:03 10° S 19:13:02 13° SSE 19:13:02 13° SSE visible
28 Feb 1.9 19:03:18 10° SSW 19:05:08 21° SE 19:05:58 17° ESE visible
01 Mar 1.0 18:54:43 10° SW 18:56:51 36° SSE 18:58:31 14° E visible
02 Mar 0.2 18:46:04 10° SW 18:48:19 69° SSE 18:50:34 10° ENE visible
